{"data":{"norad_id":67757,"intl_designator":"2026-028B","name":"JAM-E JAM 1","alt_names":[],"object_type":"PAYLOAD","status":"ACTIVE","operator":null,"country":"IRAN","launch_date":"2026-02-12","launch_site_code":"TYMSC","launch_vehicle":null,"mission":null,"orbit_class":"UNKNOWN","rcs_meters":null,"size_class":null,"mass_kg":null,"dimensions":null,"purposes":["comms"],"wikipedia_slug":null,"has_3d_model":false,"image_url":null,"decayed_at":null,"tle_current":{"epoch":"2026-05-25T03:54:23.823936Z","epoch_age_seconds":54878,"freshness":"FRESH","line1":"1 67757U 26028B   26145.16277574  .00000153  00000+0  00000+0 0  9994","line2":"2 67757   0.3087 296.4981 0000904 234.1563 164.7687  1.00279969   897","mean_motion":1.00279969,"eccentricity":9.04e-5,"inclination_deg":0.3087,"raan_deg":296.4981,"arg_perigee_deg":234.1563,"mean_anomaly_deg":164.7687,"bstar":0,"rev_number":89,"period_min":1435.9797019881,"perigee_km":35780.489360556,"apogee_km":35788.112329318,"semimajor_km":42162.437844937,"source":"CELESTRAK","updated_at":"2026-05-25T13:38:14.190397Z"}}}